ACA871 LFPG-CYUL

Flight info

Callsign ACA871
Flight time N/A
Altitude 38000
Route ELCOB UT300 SENLO DCT JSY DCT LIZAD DCT LESLU DCT TOBOR DCT IBERG/N0503F400 DCT YQX DCT MIILS ROCKT3
Aircraft B789/H-SDE1E2E3FGHIJ2J3J4J5M1RWXY/LB1D1

Departure

Time 2026-05-04 20:41
Airport Charles de Gaulle International Airport (LFPG)

Arrival

Time N/A
Airport Montreal / Pierre Elliott Trudeau International Airport (CYUL)
Time Latitude Longitude Altitude Speed Heading
2026-05-04 20:02 49.00190 2.56443 359 ft 0 kts 338°
2026-05-04 20:31 49.00182 2.56448 360 ft 4 kts 338°
2026-05-04 20:31 49.00158 2.56458 365 ft 4 kts 341°
2026-05-04 20:31 49.00135 2.56477 365 ft 4 kts 324°
2026-05-04 20:31 49.00115 2.56516 364 ft 6 kts 294°
2026-05-04 20:32 49.00112 2.56580 359 ft 6 kts 266°
2026-05-04 20:32 49.00113 2.56603 359 ft 0 kts 266°
2026-05-04 20:36 49.00112 2.56582 359 ft 7 kts 266°
2026-05-04 20:36 49.00105 2.56427 359 ft 22 kts 266°
2026-05-04 20:36 49.00091 2.56163 364 ft 25 kts 265°
2026-05-04 20:37 49.00076 2.55893 361 ft 26 kts 265°
2026-05-04 20:37 49.00055 2.55631 365 ft 20 kts 246°
2026-05-04 20:37 49.00015 2.55552 365 ft 2 kts 219°
2026-05-04 20:37 48.99988 2.55533 359 ft 7 kts 191°
2026-05-04 20:38 48.99945 2.55548 365 ft 7 kts 162°
2026-05-04 20:38 48.99905 2.55580 366 ft 7 kts 147°
2026-05-04 20:38 48.99859 2.55651 367 ft 11 kts 122°
2026-05-04 20:38 48.99827 2.55776 365 ft 10 kts 117°
2026-05-04 20:39 48.99796 2.55802 362 ft 5 kts 172°
2026-05-04 20:39 48.99724 2.55809 362 ft 16 kts 176°
2026-05-04 20:39 48.99604 2.55866 363 ft 12 kts 121°
2026-05-04 20:39 48.99603 2.55934 361 ft 0 kts 82°
2026-05-04 20:40 48.99606 2.55962 360 ft 9 kts 83°
2026-05-04 20:40 48.99617 2.56155 364 ft 38 kts 85°
2026-05-04 20:41 48.99656 2.56895 365 ft 102 kts 85°
2026-05-04 20:41 48.99730 2.58272 365 ft 157 kts 85°
2026-05-04 20:41 48.99814 2.60085 664 ft 177 kts 92°
2026-05-04 20:41 48.99878 2.61988 1311 ft 180 kts 86°
2026-05-04 20:42 49.00001 2.63869 1942 ft 182 kts 83°
2026-05-04 20:42 49.00118 2.65794 2534 ft 184 kts 84°
2026-05-04 20:42 49.00230 2.67767 3007 ft 191 kts 84°
2026-05-04 20:42 49.00341 2.69790 3545 ft 194 kts 85°
2026-05-04 20:43 49.00449 2.71943 3803 ft 213 kts 85°
2026-05-04 20:43 49.00565 2.74278 4095 ft 229 kts 85°
2026-05-04 20:43 49.00699 2.76763 4455 ft 241 kts 85°
2026-05-04 20:43 49.00617 2.79340 4937 ft 247 kts 97°
2026-05-04 20:44 49.00318 2.81915 5530 ft 247 kts 100°
2026-05-04 20:44 49.00012 2.84499 6090 ft 250 kts 99°
2026-05-04 20:44 48.99734 2.87204 6382 ft 268 kts 98°
2026-05-04 20:44 48.99458 2.89976 7027 ft 271 kts 98°
2026-05-04 20:45 48.99163 2.92837 7730 ft 273 kts 99°
2026-05-04 20:45 48.98860 2.95676 8398 ft 275 kts 99°
2026-05-04 20:45 48.98158 2.98399 8849 ft 284 kts 128°
2026-05-04 20:45 48.96682 3.00359 9525 ft 285 kts 151°
2026-05-04 20:46 48.94761 3.01075 10125 ft 288 kts 177°
2026-05-04 20:46 48.92770 3.00432 10363 ft 305 kts 205°
2026-05-04 20:46 48.91089 2.98358 10573 ft 323 kts 232°
2026-05-04 20:46 48.90144 2.95248 10816 ft 339 kts 257°
2026-05-04 20:47 48.90045 2.91603 11106 ft 353 kts 274°
2026-05-04 20:47 48.90420 2.87876 11571 ft 360 kts 281°
2026-05-04 20:47 48.90916 2.84121 12169 ft 364 kts 281°
2026-05-04 20:47 48.91304 2.80297 12749 ft 368 kts 276°
2026-05-04 20:48 48.91554 2.76394 13325 ft 373 kts 275°
2026-05-04 20:48 48.91826 2.72510 13894 ft 377 kts 276°
2026-05-04 20:48 48.92173 2.68551 14451 ft 380 kts 277°
2026-05-04 20:48 48.92527 2.64554 14987 ft 383 kts 277°
2026-05-04 20:49 48.92802 2.60511 15531 ft 386 kts 274°
2026-05-04 20:49 48.93005 2.56429 16041 ft 389 kts 274°
2026-05-04 20:49 48.93238 2.52311 16594 ft 392 kts 275°
2026-05-04 20:49 48.93511 2.48185 17167 ft 394 kts 275°
2026-05-04 20:50 48.93779 2.44015 17718 ft 397 kts 275°
2026-05-04 20:50 48.94025 2.39831 18222 ft 400 kts 275°
2026-05-04 20:50 48.94271 2.35594 18692 ft 403 kts 275°
2026-05-04 20:50 48.94527 2.31334 19140 ft 406 kts 275°
2026-05-04 20:51 48.94781 2.27138 19576 ft 408 kts 275°
2026-05-04 20:51 48.95036 2.22820 20018 ft 411 kts 274°
2026-05-04 20:51 48.95287 2.18485 20457 ft 414 kts 274°
2026-05-04 20:51 48.95542 2.14099 20883 ft 417 kts 274°
2026-05-04 20:52 48.95798 2.09695 21298 ft 419 kts 274°
2026-05-04 20:52 48.96053 2.05264 21704 ft 422 kts 274°
2026-05-04 20:52 48.96308 2.00792 22115 ft 425 kts 274°
2026-05-04 20:52 48.96562 1.96303 22506 ft 428 kts 274°
2026-05-04 20:53 48.96817 1.91774 22890 ft 431 kts 274°
2026-05-04 20:53 48.97071 1.87223 23293 ft 433 kts 274°
2026-05-04 20:53 48.97323 1.82695 23637 ft 436 kts 273°
2026-05-04 20:53 48.97576 1.78084 23963 ft 438 kts 273°
2026-05-04 20:54 48.97829 1.73459 24309 ft 440 kts 273°
2026-05-04 20:54 48.98082 1.68807 24653 ft 441 kts 273°
2026-05-04 20:54 48.98333 1.64143 24990 ft 443 kts 272°
2026-05-04 20:54 48.98583 1.59472 25325 ft 444 kts 272°
2026-05-04 20:55 48.98831 1.54788 25659 ft 445 kts 272°
2026-05-04 20:55 48.99079 1.50079 25984 ft 447 kts 272°